Regional Weather Roundup
Issued by NWS

Home | Current Version | Previous Version | Graphics & Text | Print | Product List | Glossary Off
Versions: 1 2 3 4 5 6 7 8 9 10 11 12 13 14 15 16 17 18 19 20 21 22 23 24 25 26 27 28 29 30 31 32 33 34 35 36 37 38 39 40 41 42 43 44 45 46 47 48 49 50

000
ASUS43 KTOP 300008
RWRKS

WEATHER ROUNDUP FOR KANSAS
NATIONAL WEATHER SERVICE GOODLAND KS
700 PM CDT FRI AUG 29 2014

NOTE:  "FAIR" INDICATES FEW OR NO CLOUDS BELOW 12,000 FEET WITH NO
SIGNIFICANT WEATHER AND/OR OBSTRUCTIONS TO VISIBILITY.

KSZ001>006-013>018-027>032-041>047-300100-
NORTHWEST KANSAS

CITY           SKY/WX    TMP DP  RH WIND       PRES   REMARKS
HAYS           SUNNY     84  55  37 N10       29.87S
HILL CITY      SUNNY     85  54  34 N7        29.87S
6HR MIN TEMP:  80; 6HR MAX TEMP:  87;

RUSSELL        SUNNY     85  58  39 N7        29.84S
6HR MIN TEMP:  78; 6HR MAX TEMP:  86;

$$

KSZ061>065-074>080-084>089-300100-
SOUTHWEST KANSAS

CITY           SKY/WX    TMP DP  RH WIND       PRES   REMARKS
DODGE CITY     SUNNY     86  48  26 N10       29.90R
6HR MIN TEMP:  81; 6HR MAX TEMP:  87;

ELKHART          N/A     87  48  25 N6          N/A
GARDEN CITY    SUNNY     84  47  27 NE13      29.92R
6HR MIN TEMP:  80; 6HR MAX TEMP:  85;

GREAT BEND     MOSUNNY   84  57  39 NW3       29.85S
LIBERAL        SUNNY     86  50  28 NE8       29.93S
PRATT          SUNNY     82  52  34 W5        29.87S
$$

KSZ066>073-081>083-090>101-300100-
SOUTHEAST KANSAS

CITY           SKY/WX    TMP DP  RH WIND       PRES   REMARKS
CHANUTE        MOSUNNY   85  63  47 SW14      29.84R
6HR MIN TEMP:  81; 6HR MAX TEMP:  90; 6HR PCP: TRACE;

COFFEYVILLE    PTSUNNY   85  66  53 S12       29.84S
6HR MIN TEMP:  83; 6HR MAX TEMP:  90;

HUTCHINSON     SUNNY     82  65  56 S10       29.84S
6HR MIN TEMP:  79; 6HR MAX TEMP:  87;

MEDICINE LODGE   N/A     84  63  49 SE5       29.83S
NEWTON         SUNNY     82  63  51 SW12      29.88R
WICHITA INTL   TSTM      75  70  83 S12       29.85R
WICHITA JABRA  LGT RAIN  78  68  71 S9        29.85R
6HR MIN TEMP:  78; 6HR MAX TEMP:  86; 6HR PCP: TRACE;

WICHITA MCCONL DRIZZLE   79  68  69 S10       29.86R
WINFIELD       MOSUNNY   80  67  64 S10       29.85F
6HR MIN TEMP:  79; 6HR MAX TEMP:  85;

$$

KSZ007>012-019>026-033>040-048>060-102>105-300100-
NORTHEAST KANSAS

CITY           SKY/WX    TMP DP  RH WIND       PRES   REMARKS
CONCORDIA      SUNNY     81  67  62 W9        29.81F
6HR MIN TEMP:  75; 6HR MAX TEMP:  83;

LAWRENCE       CLOUDY    88  63  43 S8        29.77F
6HR MIN TEMP:  81; 6HR MAX TEMP:  93;

MANHATTAN      MOSUNNY   86  64  47 W7        29.78F
6HR MIN TEMP:  83; 6HR MAX TEMP:  90;

MARYSVILLE     MOSUNNY   81  66  61 W12       29.80R
TOPEKA BILLARD PTSUNNY   79  66  64 VRB5      29.81R
TOPEKA FORBES  CLOUDY    79  67  66 NW12      29.80R
6HR MIN TEMP:  78; 6HR MAX TEMP:  91;

$$


USA.gov is the U.S. government's official web portal to all federal, state and local government web resources and services.